HYLAS 4 (43272 NORAD) Tracking and Keplerian Element Data

This shows tracking and keplerian element data for the satellite.

Feedback or suggestion? Click here.




ElementValue
Catalog43272
NameHYLAS 4
Epoch Orbit383
Epoch Day106.77852201
Epoch Year2019
RAAN118.1342
Inclination0.0675
Eccentricity0.000187
Argument of Perigee24.9951
Mean Anonmoly308.2375
Mean Motion1.00270197
Decay Rate-2.55E-06
L11 43272U 18033B 19106.77852201 -.00000255 00000-0 00000-0 0 9995
L22 43272 0.0675 118.1342 0001870 24.9951 308.2375 1.00270197 3833

Live tracking and technical data element details for HYLAS 4 (NORAD 43272). HYLAS 4 can be tracked NOW for your location showing map with azimuth and elevation plus other details from your city location.

Track the satellite on the map from your city or location and see movement details for azimuth, elevation, latitude, longitude, range, height, and movement on the map or in text.







IsCatalogInMostPopularTable: catalog: 43272, numindb: 150
Update: records affected: 1



GetName: 43272 HYLAS 4

Hit Count: updated at: Sat, 20 Apr 2019 00:50:22 GMT